Weather History for KESN - September, 2013

Change the Weather History Date:

Monday, September 23, 2013

  Actual Average Record
Temperature  
Mean Temperature 58 °F -  
Max Temperature 66 °F 77 °F 94 °F (1970)
Min Temperature 51 °F 55 °F 42 °F (1963)
Degree Days  
Heating Degree Days 6    
Growing Degree Days 8 (Base 50)    
Moisture  
Dew Point 48 °F    
Average Humidity 74    
Maximum Humidity 99    
Minimum Humidity 46    
Precipitation  
Precipitation 0.00 in - - ()
Sea Level Pressure  
Sea Level Pressure 30.05 in    
Wind  
Wind Speed 2 mph (North)    
Max Wind Speed 13 mph    
Max Gust Speed 18 mph    
Visibility 10 miles    
Events      
Averages and records for this station are not official NWS values.
T = Trace of Precipitation, MM = Missing Value Source: NWS Daily Summary

Daily Weather History Graph

Daily Weather History Graph

Search for Another Location

Airport or City:

Trip Planner

Search our weather history database for the weather conditions in past years. The results will help you decide how hot, cold, wet, or windy it might be!

Date:

Astronomy

Sep. 23, 2013 Rise Set
Actual Time 6:53 AM EDT 6:59 PM EDT
Civil Twilight 6:26 AM EDT 7:25 PM EDT
Nautical Twilight 5:55 AM EDT 7:56 PM EDT
Astronomical Twilight 5:23 AM EDT 8:28 PM EDT
Moon 9:32 PM EDT (9/23) 11:07 AM EDT (9/23)
Length of Visible Light 12h 59m
Length of Day
12h 06m
Waning Gibbous, 81% of the Moon is Illuminated
Sep 23
Waning Gibbous
Sep 26
Last Quarter
Oct 4
New
Oct 11
First Quarter
Oct 18
Full

Hourly Weather History & Observations

Time (EDT) Temp. Dew Point Humidity Pressure Visibility Wind Dir Wind Speed Gust Speed Precip Events Conditions
12:01 AM 57.6 °F 51.4 °F 80% 29.96 in 10.0 mi North 4.6 mph - N/A   Clear
12:21 AM 57.2 °F 51.4 °F 81% 29.97 in 10.0 mi Calm Calm - N/A   Clear
12:41 AM 57.4 °F 51.3 °F 80% 29.97 in 10.0 mi Calm Calm - N/A   Clear
1:01 AM 56.5 °F 51.3 °F 83% 29.98 in 10.0 mi NNE 3.5 mph - N/A   Clear
1:21 AM 56.7 °F 49.6 °F 77% 29.98 in 10.0 mi Calm Calm - N/A   Clear
1:41 AM 57.2 °F 48.7 °F 73% 29.99 in 10.0 mi NNE 5.8 mph - N/A   Clear
2:02 AM 55.8 °F 48.6 °F 77% 30.00 in 10.0 mi Calm Calm - N/A   Clear
2:22 AM 54.0 °F 48.4 °F 81% 30.00 in 10.0 mi Calm Calm - N/A   Clear
2:42 AM 52.9 °F 48.4 °F 85% 30.00 in 10.0 mi Calm Calm - N/A   Clear
3:02 AM 53.4 °F 48.4 °F 83% 30.00 in 10.0 mi Calm Calm - N/A   Clear
3:22 AM 52.9 °F 48.2 °F 84% 30.01 in 10.0 mi Calm Calm - N/A   Clear
3:42 AM 53.6 °F 48.0 °F 81% 30.01 in 10.0 mi Calm Calm - N/A   Clear
4:02 AM 52.7 °F 47.3 °F 82% 30.01 in 10.0 mi Calm Calm - N/A   Clear
4:22 AM 52.7 °F 47.3 °F 82% 30.01 in 10.0 mi Calm Calm - N/A   Clear
4:42 AM 52.7 °F 46.8 °F 80% 30.02 in 10.0 mi Calm Calm - N/A   Clear
5:02 AM 52.3 °F 46.4 °F 80% 30.02 in 10.0 mi Calm Calm - N/A   Clear
5:22 AM 52.3 °F 46.2 °F 80% 30.03 in 10.0 mi Calm Calm - N/A   Scattered Clouds
5:42 AM 52.7 °F 46.0 °F 78% 30.03 in 10.0 mi Calm Calm - N/A   Mostly Cloudy
6:02 AM 53.2 °F 46.4 °F 78% 30.04 in 10.0 mi Calm Calm - N/A   Scattered Clouds
6:22 AM 54.3 °F 46.8 °F 76% 30.05 in 10.0 mi Calm Calm - N/A   Mostly Cloudy
6:42 AM 54.7 °F 47.3 °F 76% 30.05 in 10.0 mi Calm Calm - N/A   Overcast
6:45 AM 55.4 °F 42.8 °F 63% 30.06 in 10.0 mi Calm Calm - N/A   Overcast
6:46 AM 54.7 °F 47.3 °F 76% 30.06 in 10.0 mi Calm Calm - N/A   Overcast
7:45 AM 55.4 °F 46.4 °F 72% 30.09 in 10.0 mi Calm Calm - N/A   Mostly Cloudy
9:55 AM 57.2 °F 44.6 °F 63% 30.11 in 10.0 mi North 11.5 mph 17.3 mph N/A   Mostly Cloudy
10:55 AM 62.6 °F 42.8 °F 48% 30.11 in 10.0 mi NNE 5.8 mph - N/A   Scattered Clouds
11:46 AM 64.4 °F 44.6 °F 49% 30.11 in 10.0 mi NNE 9.2 mph - N/A   Scattered Clouds
12:45 PM 64.4 °F 44.6 °F 49% 30.10 in 10.0 mi North 6.9 mph - N/A   Scattered Clouds
1:50 PM 64.4 °F 44.6 °F 49% 30.09 in 10.0 mi NNW 12.7 mph 18.4 mph N/A   Partly Cloudy
2:50 PM 64.4 °F 44.6 °F 49% 30.07 in 10.0 mi NNW 11.5 mph - N/A   Partly Cloudy
3:50 PM 66.2 °F 44.6 °F 46% 30.06 in 10.0 mi North 11.5 mph - N/A   Clear
4:50 PM 66.2 °F 46.4 °F 49% 30.06 in 10.0 mi North 9.2 mph - N/A   Clear
5:53 PM 66.2 °F 46.4 °F 49% 30.07 in 10.0 mi North 6.9 mph - N/A   Clear
6:50 PM 62.6 °F 48.2 °F 59% 30.07 in 10.0 mi Calm Calm - N/A   Clear
7:53 PM 57.2 °F 50.0 °F 77% 30.09 in 10.0 mi Calm Calm - N/A   Clear
8:53 PM 55.4 °F 50.0 °F 82% 30.10 in 10.0 mi Calm Calm - N/A   Clear
10:04 PM 53.2 °F 50.9 °F 92% 30.10 in 10.0 mi Calm Calm - N/A   Clear
10:24 PM 52.9 °F 51.4 °F 95% 30.10 in 10.0 mi Calm Calm - N/A   Clear
10:44 PM 51.8 °F 51.6 °F 99% 30.11 in 10.0 mi Calm Calm - N/A   Clear
11:04 PM 52.3 °F 50.5 °F 94% 30.11 in 10.0 mi Calm Calm - N/A   Clear
11:24 PM 52.7 °F 50.7 °F 93% 30.11 in 10.0 mi Calm Calm - N/A   Clear
11:44 PM 51.8 °F 50.5 °F 95% 30.11 in 10.0 mi Calm Calm - N/A   Clear